• In Netherlands
  • List of Countries
  • For 7 days
  • Water Temperature
  • Satellite Maps
  • Weather Map
  • Weather Widgets
  • user-avatar
    Login

    Hourly Weather Sozopol

    Today, 21 September, Thursday

    Time Temperature Precipitation Wind Pressure Humidity
    00:00 +23°C° 0 mm 4 mps 751 mmHg 66%
    01:00 +22°C° 0 mm 4 mps 751 mmHg 73%
    02:00 +20°C° 0 mm 5 mps 752 mmHg 72%
    03:00 +20°C° 0 mm 5 mps 752 mmHg 71%
    04:00 +19°C° 0 mm 5 mps 752 mmHg 69%
    05:00 +17°C° 0 mm 5 mps 752 mmHg 68%
    06:00 +19°C° 0 mm 5 mps 753 mmHg 63%
    07:00 +20°C° 0 mm 5 mps 753 mmHg 58%
    08:00 +20°C° 0 mm 5 mps 753 mmHg 53%
    09:00 +22°C° 0 mm 5 mps 753 mmHg 50%
    10:00 +23°C° 0 mm 5 mps 754 mmHg 47%
    11:00 +25°C° 0 mm 5 mps 754 mmHg 44%
    12:00 +26°C° 0 mm 4 mps 754 mmHg 43%
    13:00 +26°C° 0 mm 4 mps 754 mmHg 42%
    14:00 +27°C° 0 mm 4 mps 753 mmHg 41%
    15:00 +26°C° 0.1 mm 3 mps 753 mmHg 43%
    16:00 +25°C° 0.1 mm 3 mps 753 mmHg 44%
    17:00 +25°C° 0.1 mm 3 mps 753 mmHg 45%
    18:00 +22°C° 0.1 mm 3 mps 754 mmHg 48%
    19:00 +21°C° 0.1 mm 4 mps 754 mmHg 50%
    20:00 +19°C° 0.1 mm 5 mps 754 mmHg 53%
    21:00 +19°C° 0.2 mm 5 mps 755 mmHg 55%
    22:00 +17°C° 0.2 mm 6 mps 755 mmHg 58%
    23:00 +16°C° 0.2 mm 7 mps 755 mmHg 60%

    Tomorrow, 22 September, Friday

    Time Temperature Precipitation Wind Pressure Humidity
    00:00 +15°C° 0.2 mm 7 mps 756 mmHg 64%
    01:00 +15°C° 0.2 mm 7 mps 756 mmHg 67%
    02:00 +14°C° 0.2 mm 7 mps 756 mmHg 71%
    03:00 +14°C° 0.1 mm 6 mps 756 mmHg 71%
    04:00 +14°C° 0.1 mm 6 mps 756 mmHg 71%
    05:00 +13°C° 0.1 mm 6 mps 756 mmHg 71%
    06:00 +14°C° 0 mm 6 mps 756 mmHg 67%
    07:00 +15°C° 0 mm 6 mps 757 mmHg 63%
    08:00 +15°C° 0 mm 6 mps 757 mmHg 59%
    09:00 +17°C° 0 mm 6 mps 757 mmHg 51%
    10:00 +20°C° 0 mm 5 mps 757 mmHg 44%
    11:00 +22°C° 0 mm 5 mps 757 mmHg 37%
    12:00 +23°C° 0 mm 4 mps 757 mmHg 34%
    13:00 +25°C° 0 mm 4 mps 757 mmHg 32%
    14:00 +26°C° 0 mm 4 mps 756 mmHg 29%
    15:00 +25°C° 0 mm 4 mps 757 mmHg 31%
    16:00 +23°C° 0 mm 4 mps 757 mmHg 34%
    17:00 +22°C° 0 mm 4 mps 757 mmHg 36%
    18:00 +21°C° 0.1 mm 4 mps 757 mmHg 43%
    19:00 +19°C° 0.1 mm 4 mps 758 mmHg 51%
    20:00 +16°C° 0.1 mm 5 mps 758 mmHg 58%
    21:00 +16°C° 0 mm 5 mps 758 mmHg 61%
    22:00 +15°C° 0 mm 5 mps 759 mmHg 63%
    23:00 +14°C° 0 mm 5 mps 759 mmHg 66%

    Day after tomorrow, 23 September, Saturday

    Time Temperature Precipitation Wind Pressure Humidity
    00:00 +13°C° 0 mm 5 mps 759 mmHg 67%
    01:00 +13°C° 0 mm 4 mps 759 mmHg 69%
    02:00 +12°C° 0 mm 4 mps 759 mmHg 70%
    03:00 +12°C° 0 mm 4 mps 759 mmHg 71%
    04:00 +12°C° 0 mm 4 mps 760 mmHg 72%
    05:00 +12°C° 0 mm 4 mps 760 mmHg 73%
    06:00 +13°C° 0 mm 4 mps 760 mmHg 68%
    07:00 +14°C° 0 mm 4 mps 760 mmHg 64%
    08:00 +17°C° 0 mm 4 mps 760 mmHg 59%
    09:00 +19°C° 0 mm 4 mps 760 mmHg 52%
    10:00 +21°C° 0 mm 4 mps 760 mmHg 46%
    11:00 +23°C° 0 mm 4 mps 760 mmHg 39%
    12:00 +23°C° 0 mm 4 mps 760 mmHg 37%
    13:00 +24°C° 0 mm 3 mps 760 mmHg 36%
    14:00 +25°C° 0 mm 3 mps 759 mmHg 35%
    15:00 +24°C° 0 mm 3 mps 759 mmHg 36%
    16:00 +24°C° 0 mm 3 mps 759 mmHg 38%
    17:00 +22°C° 0 mm 3 mps 759 mmHg 39%
    18:00 +21°C° 0 mm 2 mps 760 mmHg 46%
    19:00 +19°C° 0 mm 2 mps 760 mmHg 53%
    20:00 +17°C° 0 mm 2 mps 760 mmHg 60%
    21:00 +17°C° 0 mm 2 mps 760 mmHg 62%
    22:00 +16°C° 0 mm 2 mps 760 mmHg 65%
    23:00 +16°C° 0 mm 2 mps 760 mmHg 67%

    24 September, Sunday

    Time Temperature Precipitation Wind Pressure Humidity
    00:00 +15°C° 0 mm 2 mps 760 mmHg 66%
    01:00 +15°C° 0 mm 2 mps 760 mmHg 65%
    02:00 +15°C° 0 mm 2 mps 760 mmHg 65%
    03:00 +15°C° 0 mm 1 mps 760 mmHg 64%
    04:00 +15°C° 0 mm 1 mps 760 mmHg 63%
    05:00 +14°C° 0 mm 1 mps 760 mmHg 63%
    06:00 +16°C° 0 mm 1 mps 761 mmHg 57%
    07:00 +19°C° 0 mm 1 mps 761 mmHg 51%
    08:00 +21°C° 0 mm 1 mps 761 mmHg 46%
    09:00 +23°C° 0 mm 1 mps 761 mmHg 41%
    10:00 +25°C° 0 mm 2 mps 761 mmHg 36%
    11:00 +27°C° 0 mm 2 mps 761 mmHg 30%
    12:00 +27°C° 0 mm 2 mps 760 mmHg 30%
    13:00 +28°C° 0 mm 3 mps 760 mmHg 29%
    14:00 +28°C° 0 mm 3 mps 760 mmHg 28%
    15:00 +27°C° 0 mm 3 mps 760 mmHg 33%
    16:00 +26°C° 0 mm 4 mps 760 mmHg 37%
    17:00 +25°C° 0 mm 4 mps 760 mmHg 42%
    18:00 +22°C° 0 mm 4 mps 760 mmHg 51%
    19:00 +21°C° 0 mm 4 mps 760 mmHg 61%
    20:00 +19°C° 0 mm 4 mps 761 mmHg 70%
    21:00 +18°C° 0 mm 4 mps 761 mmHg 74%
    22:00 +18°C° 0 mm 4 mps 761 mmHg 78%
    23:00 +17°C° 0 mm 3 mps 761 mmHg 82%

    25 September, Monday

    Time Temperature Precipitation Wind Pressure Humidity
    00:00 +17°C° 0 mm 3 mps 761 mmHg 83%
    01:00 +17°C° 0 mm 3 mps 760 mmHg 85%
    02:00 +17°C° 0 mm 3 mps 760 mmHg 86%
    03:00 +17°C° 0 mm 3 mps 760 mmHg 87%
    04:00 +15°C° 0 mm 4 mps 760 mmHg 88%
    05:00 +15°C° 0 mm 4 mps 760 mmHg 88%
    06:00 +17°C° 0 mm 5 mps 760 mmHg 82%
    07:00 +19°C° 0 mm 5 mps 760 mmHg 76%
    08:00 +21°C° 0 mm 6 mps 760 mmHg 69%
    09:00 +22°C° 0.1 mm 6 mps 760 mmHg 64%
    10:00 +24°C° 0.1 mm 7 mps 760 mmHg 58%
    11:00 +26°C° 0.1 mm 7 mps 760 mmHg 52%
    12:00 +26°C° 0.3 mm 7 mps 760 mmHg 53%
    13:00 +26°C° 0.3 mm 7 mps 759 mmHg 55%
    14:00 +26°C° 0.3 mm 7 mps 759 mmHg 56%
    15:00 +24°C° 0.1 mm 7 mps 759 mmHg 59%
    16:00 +24°C° 0.1 mm 7 mps 759 mmHg 61%
    17:00 +23°C° 0.1 mm 7 mps 759 mmHg 64%
    18:00 +22°C° 0 mm 6 mps 759 mmHg 69%
    19:00 +21°C° 0 mm 6 mps 759 mmHg 75%
    20:00 +20°C° 0 mm 6 mps 760 mmHg 80%
    21:00 +19°C° 0 mm 5 mps 759 mmHg 83%
    22:00 +19°C° 0 mm 5 mps 759 mmHg 85%
    23:00 +18°C° 0 mm 4 mps 759 mmHg 88%

    26 September, Tuesday

    Time Temperature Precipitation Wind Pressure Humidity
    00:00 +18°C° 0.1 mm 4 mps 759 mmHg 89%
    01:00 +17°C° 0.1 mm 5 mps 759 mmHg 91%
    02:00 +17°C° 0.1 mm 5 mps 759 mmHg 92%
    03:00 +16°C° 0 mm 5 mps 759 mmHg 93%
    04:00 +16°C° 0 mm 5 mps 759 mmHg 93%
    05:00 +16°C° 0 mm 5 mps 759 mmHg 94%
    06:00 +17°C° 0.1 mm 5 mps 759 mmHg 89%
    07:00 +19°C° 0.1 mm 5 mps 759 mmHg 84%
    08:00 +20°C° 0.1 mm 5 mps 759 mmHg 78%
    09:00 +21°C° 0.3 mm 5 mps 759 mmHg 71%
    10:00 +23°C° 0.3 mm 6 mps 759 mmHg 63%
    11:00 +26°C° 0.3 mm 6 mps 759 mmHg 55%
    12:00 +26°C° 0.2 mm 6 mps 759 mmHg 55%
    13:00 +26°C° 0.2 mm 7 mps 759 mmHg 54%
    14:00 +26°C° 0.2 mm 7 mps 759 mmHg 54%
    15:00 +24°C° 0.1 mm 8 mps 759 mmHg 59%
    16:00 +23°C° 0.1 mm 8 mps 759 mmHg 64%
    17:00 +21°C° 0.1 mm 8 mps 759 mmHg 69%
    18:00 +21°C° 0 mm 8 mps 760 mmHg 73%
    19:00 +20°C° 0 mm 7 mps 760 mmHg 76%
    20:00 +18°C° 0 mm 7 mps 760 mmHg 80%
    21:00 +17°C° 0 mm 7 mps 760 mmHg 81%
    22:00 +17°C° 0 mm 7 mps 760 mmHg 82%
    23:00 +16°C° 0 mm 6 mps 760 mmHg 84%
    Show more